Olean, NY

7:30 PM EDT on April 26, 2017 (GMT -0400)
Cattaraugus County-Olean

Weather History for KOLE - February, 2013

Change the Weather History Date:

Wednesday, February 20, 2013

  Actual Average (KBFD) Record (KBFD)
Temperature  
Mean Temperature 14 °F -  
Max Temperature 17 °F 32 °F 58 °F (2016)
Min Temperature 12 °F 16 °F -15 °F (2015)
Degree Days  
Heating Degree Days 50    
Moisture  
Dew Point 10 °F    
Average Humidity 82    
Maximum Humidity 93    
Minimum Humidity 68    
Precipitation  
Precipitation 0.00 in - - ()
Sea Level Pressure  
Sea Level Pressure 29.82 in    
Wind  
Wind Speed 0 mph (North)    
Max Wind Speed 0 mph    
Max Gust Speed -    
Visibility 3 miles    
Events Snow    
Averages and records for this station are not official NWS values.
T = Trace of Precipitation, MM = Missing Value Source: NWS Daily Summary

Daily Weather History Graph

Daily Weather History Graph

Search for Another Location

Airport or City:

Trip Planner

Search our weather history database for the weather conditions in past years. The results will help you decide how hot, cold, wet, or windy it might be!

Date:

Astronomy

Feb. 20, 2013 Rise Set
Actual Time 7:02 AM EST 5:52 PM EST
Civil Twilight 6:33 AM EST 6:21 PM EST
Nautical Twilight 6:01 AM EST 6:53 PM EST
Astronomical Twilight 5:28 AM EST 7:26 PM EST
Moon 1:09 PM EST (2/20) 3:24 AM EST (2/20)
Length of Visible Light 11h 47m
Length of Day
10h 50m
Waxing Gibbous, 76% of the Moon is Illuminated
Feb 20
Waxing Gibbous
Feb 25
Full
Mar 4
Last Quarter
Mar 11
New
Mar 19
First Quarter

Hourly Weather History & Observations

Time (EST) Temp. Dew Point Humidity Pressure Visibility Wind Dir Wind Speed Gust Speed Precip Events Conditions
12:15 AM 17.6 °F 10.4 °F 73% 29.69 in 7.0 mi Calm Calm - N/A   Overcast
12:35 AM 17.6 °F 10.4 °F 73% 29.69 in 10.0 mi Calm Calm - N/A   Overcast
12:55 AM 17.6 °F 10.4 °F 73% 29.69 in 10.0 mi Calm Calm - N/A Snow Light Snow
1:15 AM 17.6 °F 10.4 °F 73% 29.70 in 7.0 mi Calm Calm - N/A Snow Light Snow
1:35 AM 15.8 °F 10.4 °F 79% 29.70 in 4.0 mi Calm Calm - N/A Snow Light Snow
1:55 AM 15.8 °F 10.4 °F 79% 29.71 in 4.0 mi Calm Calm - N/A Snow Light Snow
2:15 AM 15.8 °F 10.4 °F 79% 29.71 in 3.0 mi Calm Calm - N/A Snow Light Snow
2:35 AM 15.8 °F 10.4 °F 79% 29.71 in 3.0 mi Calm Calm - N/A Snow Light Snow
2:55 AM 15.8 °F 10.4 °F 79% 29.70 in 5.0 mi Calm Calm - N/A Snow Light Snow
3:15 AM 14.0 °F 10.4 °F 86% 29.70 in 5.0 mi Calm Calm - N/A Snow Light Snow
3:35 AM 14.0 °F 10.4 °F 86% 29.70 in 5.0 mi Calm Calm - N/A Snow Light Snow
3:55 AM 14.0 °F 10.4 °F 86% 29.70 in 5.0 mi Calm Calm - N/A Snow Light Snow
4:15 AM 14.0 °F 10.4 °F 86% 29.71 in 4.0 mi Calm Calm - N/A Snow Light Snow
4:35 AM 14.0 °F 10.4 °F 86% 29.71 in 2.5 mi Calm Calm - N/A Snow Light Snow
4:55 AM 14.0 °F 10.4 °F 86% 29.72 in 2.5 mi Calm Calm - N/A Snow Light Snow
5:15 AM 14.0 °F 10.4 °F 86% 29.72 in 2.5 mi Calm Calm - N/A Snow Light Snow
5:35 AM 14.0 °F 10.4 °F 86% 29.73 in 2.5 mi Calm Calm - N/A Snow Light Snow
6:15 AM 14.0 °F 8.6 °F 79% 29.74 in 2.0 mi Calm Calm - N/A Snow Light Snow
6:35 AM 14.0 °F 8.6 °F 79% 29.74 in 3.0 mi Calm Calm - N/A Snow Light Snow
6:55 AM 12.2 °F 8.6 °F 85% 29.75 in 2.5 mi Calm Calm - N/A Snow Light Snow
7:15 AM 12.2 °F 8.6 °F 85% 29.75 in 1.5 mi Calm Calm - N/A Snow Light Snow
7:35 AM 14.0 °F 10.4 °F 86% 29.75 in 1.0 mi Calm Calm - N/A Snow Light Snow
7:55 AM 12.2 °F 10.4 °F 92% 29.75 in 1.2 mi Calm Calm - N/A Snow Light Snow
8:15 AM 14.0 °F 8.6 °F 79% 29.76 in 1.5 mi Calm Calm - N/A Snow Light Snow
8:55 AM 14.0 °F 10.4 °F 86% 29.76 in 1.5 mi Calm Calm - N/A Snow Light Snow
9:15 AM 14.0 °F 10.4 °F 86% 29.76 in 0.8 mi Calm Calm - N/A Snow Light Snow
9:35 AM 15.8 °F 10.4 °F 79% 29.76 in 0.8 mi Calm Calm - N/A Snow Light Snow
9:55 AM 15.8 °F 12.2 °F 86% 29.76 in 0.5 mi Calm Calm - N/A Snow Snow
10:15 AM 14.0 °F 12.2 °F 93% 29.77 in 0.2 mi Calm Calm - N/A Snow Heavy Snow
10:35 AM 14.0 °F 10.4 °F 86% 29.77 in 0.5 mi Calm Calm - N/A Snow Light Snow
10:55 AM 14.0 °F 8.6 °F 79% 29.79 in 1.8 mi Calm Calm - N/A Snow Light Snow
11:15 AM 17.6 °F 8.6 °F 68% 29.79 in 2.0 mi Calm Calm - N/A Snow Light Snow
11:35 AM 17.6 °F 8.6 °F 68% 29.79 in 2.0 mi Calm Calm - N/A Snow Light Snow
11:55 AM 15.8 °F 8.6 °F 73% 29.80 in 2.0 mi Calm Calm - N/A Snow Light Snow
12:15 PM 15.8 °F 8.6 °F 73% 29.80 in 2.0 mi Calm Calm - N/A Snow Light Snow
12:35 PM 15.8 °F 8.6 °F 73% 29.81 in 1.5 mi Calm Calm - N/A Snow Light Snow
12:55 PM 15.8 °F 8.6 °F 73% 29.81 in 2.0 mi Calm Calm - N/A Snow Light Snow
1:15 PM 15.8 °F 8.6 °F 73% 29.82 in 1.8 mi Calm Calm - N/A Snow Light Snow
1:35 PM 14.0 °F 10.4 °F 86% 29.82 in 0.5 mi Calm Calm - N/A Snow Light Snow
1:55 PM 14.0 °F 10.4 °F 86% 29.83 in 0.8 mi Calm Calm - N/A Snow Light Snow
2:15 PM 14.0 °F 10.4 °F 86% 29.84 in 1.5 mi Calm Calm - N/A Snow Light Snow
2:35 PM 14.0 °F 10.4 °F 86% 29.84 in 0.8 mi Calm Calm - N/A Snow Light Snow
2:55 PM 14.0 °F 10.4 °F 86% 29.86 in 1.2 mi Calm Calm - N/A Snow Light Snow
3:15 PM 14.0 °F 8.6 °F 79% 29.87 in 1.5 mi Calm Calm - N/A Snow Light Snow
3:35 PM 14.0 °F 8.6 °F 79% 29.88 in 2.0 mi Calm Calm - N/A Snow Light Snow
3:55 PM 14.0 °F 8.6 °F 79% 29.89 in 2.5 mi Calm Calm - N/A Snow Light Snow
4:15 PM 14.0 °F 8.6 °F 79% 29.90 in 2.5 mi Calm Calm - N/A Snow Light Snow
4:35 PM 14.0 °F 8.6 °F 79% 29.90 in 2.5 mi Calm Calm - N/A Snow Light Snow
4:55 PM 14.0 °F 8.6 °F 79% 29.91 in 2.0 mi Calm Calm - N/A Snow Light Snow
5:15 PM 14.0 °F 8.6 °F 79% 29.92 in 2.5 mi Calm Calm - N/A Snow Light Snow
5:35 PM 14.0 °F 10.4 °F 86% 29.93 in 1.5 mi Calm Calm - N/A Snow Light Snow
5:55 PM 14.0 °F 10.4 °F 86% 29.94 in 1.5 mi Calm Calm - N/A Snow Light Snow
6:15 PM 14.0 °F 8.6 °F 79% 29.95 in 3.0 mi Calm Calm - N/A Snow Light Snow
6:35 PM 14.0 °F 8.6 °F 79% 29.94 in 3.0 mi Calm Calm - N/A Snow Light Snow
6:55 PM 14.0 °F 8.6 °F 79% 29.94 in 3.0 mi Calm Calm - N/A Snow Light Snow
7:15 PM 14.0 °F 10.4 °F 86% 29.95 in 2.5 mi Calm Calm - N/A Snow Light Snow
7:35 PM 14.0 °F 10.4 °F 86% 29.96 in 1.8 mi Calm Calm - N/A Snow Light Snow
7:55 PM 14.0 °F 10.4 °F 86% 29.96 in 2.0 mi Calm Calm - N/A Snow Light Snow
8:15 PM 14.0 °F 8.6 °F 79% 29.96 in 3.0 mi Calm Calm - N/A Snow Light Snow
8:35 PM 14.0 °F 8.6 °F 79% 29.95 in 4.0 mi Calm Calm - N/A Snow Light Snow
8:55 PM 14.0 °F 10.4 °F 86% 29.95 in 4.0 mi Calm Calm - N/A Snow Light Snow
9:15 PM 14.0 °F 10.4 °F 86% 29.96 in 4.0 mi Calm Calm - N/A Snow Light Snow
9:35 PM 14.0 °F 10.4 °F 86% 29.96 in 4.0 mi Calm Calm - N/A Snow Light Snow
9:55 PM 14.0 °F 10.4 °F 86% 29.97 in 3.0 mi Calm Calm - N/A Snow Light Snow
10:15 PM 14.0 °F 10.4 °F 86% 29.96 in 3.0 mi Calm Calm - N/A Snow Light Snow
10:35 PM 14.0 °F 10.4 °F 86% 29.95 in 2.5 mi Calm Calm - N/A Snow Light Snow
10:55 PM 14.0 °F 10.4 °F 86% 29.95 in 5.0 mi Calm Calm - N/A Snow Light Snow
11:15 PM 14.0 °F 10.4 °F 86% 29.96 in 3.0 mi Calm Calm - N/A Snow Light Snow
11:35 PM 14.0 °F 8.6 °F 79% 29.95 in 3.0 mi Calm Calm - N/A Snow Light Snow
11:55 PM 14.0 °F 8.6 °F 79% 29.95 in 3.0 mi Calm Calm - N/A Snow Light Snow